Mt. Pocono, PA

4:47 PM EST on December 09, 2019 (GMT -0500)
Pocono Mountains Municipal

Weather History for KMPO - September, 2019

Change the Weather History Date:

Thursday, September 26, 2019

  Actual Average Record
Temperature  
Mean Temperature 60 °F 55 °F  
Max Temperature 71 °F 64 °F 85 °F (2007)
Min Temperature 49 °F 46 °F 25 °F (1932)
Degree Days  
Heating Degree Days 5 10  
Month to date heating degree days 113 159  
Since 1 July heating degree days 154 222  
Cooling Degree Days 0 0  
Month to date cooling degree days 25 13  
Year to date cooling degree days 343 309  
Growing Degree Days 10 (Base 50)    
Moisture  
Dew Point 54 °F    
Average Humidity 91    
Maximum Humidity 100    
Minimum Humidity 53    
Precipitation  
Precipitation 0.16 in 0.20 in 2.00 in (1998)
Month to date precipitation 1.24 4.53  
Year to date precipitation 36.17 35.51  
Sea Level Pressure  
Sea Level Pressure 29.88 in    
Wind  
Wind Speed 5 mph ()    
Max Wind Speed 16 mph    
Max Gust Speed 20 mph    
Visibility 8.9 miles    
Events Rain    
T = Trace of Precipitation, MM = Missing Value Source: Averaged Metar Reports

Daily Weather History Graph

Daily Weather History Graph

Search for Another Location

Airport or City:

Astronomy

Sep. 26, 2019 Rise Set
Actual Time 6:52 AM EDT 6:52 PM EDT
Civil Twilight 6:25 AM EDT 7:19 PM EDT
Nautical Twilight 5:53 AM EDT 7:51 PM EDT
Astronomical Twilight 5:20 AM EDT 8:24 PM EDT
Moon 3:54 AM EDT (9/26) 6:05 PM EDT (9/26)
Length of Visible Light 12h 54m
Length of Day
11h 59m
Waning Crescent, 7% of the Moon is Illuminated
Sep 26
Waning Crescent
Sep 28
New
Oct 5
First Quarter
Oct 13
Full
Oct 21
Last Quarter

Hourly Weather History & Observations

Time (EDT) Temp. Dew Point Humidity Pressure Visibility Wind Dir Wind Speed Gust Speed Precip Events Conditions
12:53 AM 51.1 °F 48.0 °F 89% 29.89 in 10.0 mi Calm Calm - N/A   Clear
1:53 AM 50.0 °F 48.0 °F 93% 29.88 in 10.0 mi West 3.5 mph - N/A   Clear
2:53 AM 55.9 °F 48.0 °F 75% 29.86 in 10.0 mi West 5.8 mph - N/A   Clear
3:53 AM 55.9 °F 48.0 °F 75% 29.84 in 10.0 mi West 5.8 mph - N/A   Partly Cloudy
4:53 AM 55.0 °F 48.0 °F 77% 29.83 in 10.0 mi West 3.5 mph - N/A   Clear
5:53 AM 50.0 °F 48.9 °F 96% 29.83 in 10.0 mi Calm Calm - N/A   Partly Cloudy
6:53 AM 55.0 °F 51.1 °F 86% 29.83 in 10.0 mi West 4.6 mph - N/A   Mostly Cloudy
7:53 AM 57.9 °F 53.1 °F 84% 29.84 in 10.0 mi West 3.5 mph - N/A   Overcast
8:53 AM 62.1 °F 55.0 °F 78% 29.84 in 10.0 mi SSW 4.6 mph - N/A   Mostly Cloudy
9:53 AM 68.0 °F 54.0 °F 61% 29.83 in 10.0 mi West 5.8 mph - N/A   Overcast
10:53 AM 68.0 °F 53.1 °F 59% 29.82 in 10.0 mi SW 6.9 mph - N/A   Overcast
11:53 AM 69.1 °F 51.1 °F 53% 29.81 in 10.0 mi WSW 9.2 mph - N/A   Overcast
12:53 PM 62.1 °F 59.0 °F 90% 29.83 in 10.0 mi West 8.1 mph - 0.02 in   Overcast
1:53 PM 60.1 °F 57.9 °F 93% 29.85 in 10.0 mi West 13.8 mph - 0.00 in   Overcast
2:53 PM 57.9 °F 57.9 °F 100% 29.84 in 10.0 mi West 8.1 mph - 0.04 in Rain Light Rain
3:01 PM 57.9 °F 57.9 °F 100% 29.85 in 10.0 mi West 8.1 mph - 0.01 in Rain Light Rain
3:23 PM 57.9 °F 57.9 °F 100% 29.84 in 8.0 mi West 8.1 mph - 0.09 in Rain Rain
3:31 PM 57.9 °F 57.9 °F 100% 29.84 in 10.0 mi West 8.1 mph - 0.09 in Rain Light Rain
3:53 PM 57.9 °F 57.9 °F 100% 29.84 in 10.0 mi West 5.8 mph - 0.10 in   Overcast
3:58 PM 57.9 °F 57.9 °F 100% 29.85 in 10.0 mi West 4.6 mph - 0.00 in Rain Light Rain
4:53 PM 60.1 °F 57.9 °F 93% 29.84 in 10.0 mi WNW 3.5 mph - 0.00 in   Scattered Clouds
5:53 PM 61.0 °F 57.0 °F 87% 29.86 in 10.0 mi WNW 5.8 mph - N/A   Clear
6:53 PM 57.0 °F 57.0 °F 100% 29.88 in 10.0 mi West 4.6 mph - N/A   Partly Cloudy
7:53 PM 55.0 °F 55.0 °F 100% 29.91 in 6.0 mi West 5.8 mph - N/A   Mostly Cloudy
8:03 PM 54.0 °F 54.0 °F 100% 29.92 in 10.0 mi West 5.8 mph - N/A   Scattered Clouds
8:15 PM 54.0 °F 54.0 °F 100% 29.93 in 7.0 mi West 3.5 mph - N/A   Mostly Cloudy
8:42 PM 54.0 °F 54.0 °F 100% 29.95 in 10.0 mi NW 8.1 mph - N/A   Scattered Clouds
8:53 PM 54.0 °F 54.0 °F 100% 29.95 in 10.0 mi NW 6.9 mph - N/A   Partly Cloudy
9:28 PM 55.0 °F 55.0 °F 100% 29.97 in 1.8 mi West 10.4 mph - N/A   Mostly Cloudy
9:53 PM 55.0 °F 55.0 °F 100% 29.97 in 1.2 mi WNW 9.2 mph - N/A   Overcast
10:53 PM 54.0 °F 54.0 °F 100% 29.99 in 2.0 mi WNW 6.9 mph - N/A   Overcast
11:13 PM 54.0 °F 54.0 °F 100% 30.01 in 8.0 mi NW 6.9 mph - N/A   Mostly Cloudy
11:26 PM 53.1 °F 53.1 °F 100% 30.01 in 9.0 mi NW 10.4 mph - N/A   Scattered Clouds
11:53 PM 52.0 °F 52.0 °F 100% 29.99 in 10.0 mi NW 10.4 mph - N/A   Clear